CZ-6A DEB

Satellite information

Favourite Embed

Satellite Type and Status

DEBRISDECAYED

Key statistics

Satellite CZ-6A DEB at a glance.

Uptime

890

Days in orbit

Revolutions

≈ 15.9

Per day

Orbit

SSO

Sun Synchronous Orbit

Inclination

98.6

Latest

Satellite identification and parameters

Extended collection of information and parameters for CZ-6A DEB.

Object identification

Identified? True

Debris? True

Object name: CZ-6A DEB

International designator: 2022-151BR

Object number (NORAD): 54322

Object ID (CCSDS): 54322

Country: PEOPLES REPUBLIC OF CHINA (PRC)

Current information (Y/N): Y

RCS size: SMALL

Orbital parameters

Decay date: April 19, 2025

Period: 90.575 minutes

Inclination: 98.6073 deg

SMA: 6680.837 km

Apoapsis: 311.37 km

Periapsis: 294.034 km

RAAN: 183.9 deg

Eccentricy: 0.0012974

Argument of periapsis: 326.3852 deg

Mean anomaly: 33.6592 deg

Mean motion: 15.89851105 rev/day

Mean motion (dot): 0.04860974 rev/day2

B* drag term: 0.01948 1/REarth

Two-line elements (TLE)

Creation date: April 15, 2025, 6:47 p.m.

Reference frame: TEME

Reference center: EARTH

Epoch: April 15, 2025, 11:08 a.m. UTC

TLE line 0: 0 CZ-6A DEB

TLE line 1: 1 54322U 22151BR 25105.46434750 .04860974 26672-1 19480-1 0 9998

TLE line 2: 2 54322 98.6073 183.9000 0012974 326.3852 33.6592 15.89851105129434

Live tracking on map

Satellite CZ-6A DEB has decayed and is no longer in orbit. No tracking available.

In-orbit conjunctions

Satellite CZ-6A DEB has decayed and is no longer in orbit. No conjunctions available.

Associated space launch

Chinese satellite reported for atmospheric/ocean/environmental/spatial parameter research purposes, details TBD.

CZ-6A DEB was lifted into orbit during the mission ‘Long March 6A | Yunhai 3’, on board a Long March 6A space rocket.

The launch took place on Nov. 11, 2022, 10:52 p.m. from Launch Complex 9A.

For more information about the launch, click the button.

Launch to space Long March 6A | Yunhai 3
Long March 6A | Yunhai 3

Agency: N/A

Status: Launch Successful

Launch date: Nov. 11, 2022, 10:52 p.m. UTC

Rocket: Long March 6A

Launch pad: Launch Complex 9A

Location: Taiyuan Satellite Launch Center, People's Republic of China

...

Latest news about this satellite

There are no fresh news available about this satellite. Check back as we update our databases every day.


Newsletter sign-up

Weekly statistics, charts and insights to help you stay on top of the space industry.